FW0579 Weather Reports


Display with metric or nautical units.
time (UTC)temp
F
wind
direction
speed
MPH
gust
MPH
rain 1hr
in
rain 24hr
in
rain mn
in
humidity
%
barometer
mb
20260903230038 80 265 8.0 17.0 0.00 0.00 0.00 52 1011.0
20260903224525 81 239 4.0 8.0 0.00 0.00 0.00 49 1011.3
20260903223024 80 355 2.0 10.0 0.00 0.00 0.00 52 1011.5
20260903221521 79 360 6.0 10.0 0.00 0.00 0.00 52 1011.8
20260903220019 80 234 3.0 6.0 0.00 0.00 0.00 51 1012.0
20260903214523 80 297 0.0 7.0 0.00 0.00 0.00 52 1012.1
20260903213029 79 304 1.0 5.0 0.00 0.00 0.00 54 1012.2
20260903211519 79 274 1.0 6.0 0.00 0.00 0.00 51 1012.1
20260903210013 79 259 3.0 6.0 0.00 0.00 0.00 52 1012.3
20260903204514 78 215 4.0 8.0 0.00 0.00 0.00 53 1012.5
20260903203024 78 248 4.0 9.0 0.00 0.00 0.00 52 1012.6
20260903201510 77 278 0.0 5.0 0.00 0.00 0.00 52 1012.8
20260903200010 77 224 4.0 9.0 0.00 0.00 0.00 52 1012.9
20260903194505 77 188 1.0 4.0 0.00 0.00 0.00 54 1013.1
20260903193002 76 340 1.0 4.0 0.00 0.00 0.00 56 1013.3
20260903191501 75 227 3.0 7.0 0.00 0.00 0.00 55 1013.5
20260903190059 75 219 1.0 5.0 0.00 0.00 0.00 61 1013.7
20260903184557 74 225 4.0 9.0 0.00 0.00 0.00 59 1013.7
20260903183055 74 272 6.0 9.0 0.00 0.00 0.00 60 1014.0
20260903181551 71 221 4.0 7.0 0.00 0.00 0.00 64 1014.1
20260903180101 71 266 1.0 10.0 0.00 0.00 0.00 64 1014.1
20260903174547 71 221 3.0 8.0 0.00 0.00 0.00 66 1014.2
20260903173052 70 248 2.0 6.0 0.00 0.00 0.00 66 1014.5
20260903171559 70 242 2.0 9.0 0.00 0.00 0.00 68 1014.4
20260903170042 68 254 0.0 0.0 0.00 0.00 0.00 73 1014.6
20260903164556 66 253 0.0 0.0 0.00 0.00 0.00 75 1014.6
20260903163035 66 267 0.0 0.0 0.00 0.00 0.00 75 1014.5
20260903161534 65 284 0.0 0.0 0.00 0.00 0.00 77 1014.5
20260903160035 64 46 0.0 0.0 0.00 0.00 0.00 81 1014.7
20260903154538 63 46 0.0 0.0 0.00 0.00 0.00 84 1014.6
20260903153031 62 360 0.0 0.0 0.00 0.00 0.00 86 1014.9
20260903151530 61 360 0.0 0.0 0.00 0.00 0.00 88 1014.9
20260903150028 59 40 0.0 0.0 0.00 0.00 0.00 88 1014.9
20260903144540 58 30 0.0 0.0 0.00 0.00 0.00 88 1014.9
20260903143033 57 296 0.0 0.0 0.00 0.00 0.00 88 1014.9
20260903141517 56 296 0.0 0.0 0.00 0.00 0.00 88 1014.9
20260903140020 56 296 0.0 0.0 0.00 0.00 0.00 88 1014.8
20260903134512 56 296 0.0 0.0 0.00 0.00 0.00 87 1014.6
20260903133010 56 295 0.0 2.0 0.00 0.00 0.00 87 1014.5
20260903131509 56 290 0.0 2.0 0.00 0.00 0.00 87 1014.6
20260903130007 56 258 0.0 3.0 0.00 0.00 0.00 86 1014.6
20260903124505 57 252 0.0 3.0 0.00 0.00 0.00 86 1014.6
20260903123004 57 251 0.0 1.0 0.00 0.00 0.00 86 1014.6
20260903121512 57 251 0.0 0.0 0.00 0.00 0.00 86 1014.8
20260903120000 58 251 0.0 0.0 0.00 0.00 0.00 86 1014.8
20260903114559 58 250 0.0 1.0 0.00 0.00 0.00 86 1015.0
20260903113136 58 250 0.0 1.0 0.00 0.00 0.00 85 1015.1
20260903111555 58 360 0.0 1.0 0.00 0.00 0.00 86 1015.2
20260903110100 58 360 1.0 2.0 0.00 0.00 0.00 86 1015.2
20260903104607 59 360 1.0 4.0 0.00 0.00 0.00 85 1015.1
20260903103053 59 360 1.0 3.0 0.00 0.00 0.00 85 1015.2
20260903101556 59 360 0.0 3.0 0.00 0.00 0.00 85 1015.2
20260903100050 59 360 0.0 0.0 0.00 0.00 0.00 85 1015.3
20260903094554 59 360 0.0 2.0 0.00 0.00 0.00 85 1015.3
20260903093051 59 360 1.0 3.0 0.00 0.00 0.00 85 1015.4
20260903091556 59 360 1.0 3.0 0.00 0.00 0.00 84 1015.5
20260903090050 59 360 1.0 3.0 0.00 0.00 0.00 84 1015.7
20260903084548 60 360 1.0 4.0 0.00 0.00 0.00 83 1015.7
20260903083043 60 360 0.0 3.0 0.00 0.00 0.00 83 1015.7
20260903081541 60 259 0.0 4.0 0.00 0.00 0.00 82 1015.7
20260903080040 61 265 2.0 6.0 0.00 0.00 0.00 82 1015.8
20260903074540 61 235 0.0 2.0 0.00 0.00 0.00 81 1015.7
20260903073039 61 360 1.0 5.0 0.00 0.00 0.00 80 1015.7
20260903071547 62 360 3.0 9.0 0.00 0.00 0.00 79 1015.6
20260903070034 62 360 4.0 8.0 0.00 0.00 0.00 78 1015.6
20260903064531 63 360 5.0 9.0 0.00 0.00 0.00 77 1015.5
20260903063027 63 360 6.0 11.0 0.00 0.00 0.00 76 1015.6
20260903061525 64 237 6.0 12.0 0.00 0.00 0.00 74 1015.6
20260903060022 64 360 6.0 13.0 0.00 0.00 0.00 73 1015.6
20260903054521 65 277 7.0 12.0 0.00 0.00 0.00 72 1015.5
20260903053020 65 277 6.0 12.0 0.00 0.00 0.00 71 1015.8
20260903051526 66 233 4.0 10.0 0.00 0.00 0.00 70 1015.7
20260903050012 67 269 5.0 15.0 0.00 0.00 0.00 68 1015.6
20260903044508 67 241 5.0 12.0 0.00 0.00 0.00 67 1015.5
20260903043011 68 360 7.0 14.0 0.00 0.00 0.00 66 1015.3
20260903041517 68 360 4.0 14.0 0.00 0.00 0.00 65 1015.3
20260903040014 69 263 8.0 14.0 0.00 0.00 0.00 63 1015.1
20260903034507 69 240 5.0 10.0 0.00 0.00 0.00 60 1014.7
20260903033013 70 246 5.0 9.0 0.00 0.00 0.00 57 1014.6
20260903031502 70 360 5.0 9.0 0.00 0.00 0.00 56 1014.4
20260903030003 71 360 4.0 9.0 0.00 0.00 0.00 54 1014.3
20260903024505 71 240 5.0 10.0 0.00 0.00 0.00 53 1014.3
20260903023002 72 281 5.0 10.0 0.00 0.00 0.00 53 1014.3
20260903021502 74 360 5.0 10.0 0.00 0.00 0.00 54 1014.4
20260903020007 75 273 4.0 11.0 0.00 0.00 0.00 54 1014.3
20260903014500 76 247 5.0 12.0 0.00 0.00 0.00 54 1014.5
20260903013109 77 291 4.0 10.0 0.00 0.00 0.00 53 1014.4
20260903011559 78 271 2.0 9.0 0.00 0.00 0.00 51 1014.3
20260903010104 79 246 5.0 11.0 0.00 0.00 0.00 50 1014.4
20260903004605 80 268 6.0 13.0 0.00 0.00 0.00 47 1014.2
20260903003100 81 254 3.0 8.0 0.00 0.00 0.00 46 1014.3
20260903001558 81 238 2.0 12.0 0.00 0.00 0.00 45 1014.5
20260903000057 82 262 2.0 7.0 0.00 0.00 0.00 43 1014.7
20260902234614 82 238 1.0 4.0 0.00 0.00 0.00 44 1014.8
20260902233101 82 275 4.0 9.0 0.00 0.00 0.00 42 1014.8
20260902231601 81 295 6.0 11.0 0.00 0.00 0.00 43 1014.8